This is the latest recevied weather packets stored in our database for station/object WA0GMH-1. If no packets are shown the sender has not sent any weather packets the latest 10 day(s).
| Time | Temp. | Humidity | Pressure | Rain* | Wind** | Luminosity | Snow |
|---|---|---|---|---|---|---|---|
| 1777748139 | 20.56° C | 71% | 1016.9 hPa | 0 mm | - | - | - |
| 1777747736 | 20.56° C | 73% | 1017.1 hPa | 0 mm | - | - | - |
| 1777747334 | 20° C | 74% | 1017.3 hPa | 0 mm | - | - | - |
| 1777746931 | 20° C | 75% | 1017.4 hPa | 0 mm | - | - | - |
| 1777746530 | 19.44° C | 73% | 1017.7 hPa | 0 mm | - | - | - |
| 1777746127 | 19.44° C | 72% | 1017.8 hPa | 0 mm | - | - | - |
| 1777745725 | 18.89° C | 72% | 1017.9 hPa | 0 mm | - | - | - |
| 1777745322 | 18.89° C | 73% | 1017.7 hPa | 0 mm | - | - | - |
| 1777744921 | 18.89° C | 77% | 1017.9 hPa | 0 mm | - | - | - |
| 1777744518 | 18.33° C | 77% | 1018 hPa | 0 mm | - | - | - |
| 1777744116 | 18.33° C | 79% | 1018 hPa | 0 mm | - | - | - |
| 1777743714 | 17.78° C | 79% | 1018.3 hPa | 0 mm | - | - | - |
| 1777743312 | 17.22° C | 79% | 1018.4 hPa | 0 mm | - | - | - |
| 1777742909 | 17.22° C | 79% | 1018.5 hPa | 0 mm | - | - | - |
| 1777742507 | 17.22° C | 81% | 1018.7 hPa | 0 mm | - | - | - |
| 1777742104 | 16.67° C | 79% | 1018.8 hPa | 0 mm | - | - | - |
| 1777741703 | 16.67° C | 81% | 1018.7 hPa | 0 mm | - | - | - |
| 1777741300 | 16.11° C | 82% | 1018.8 hPa | 0 mm | - | - | - |
| 1777740898 | 15.56° C | 84% | 1018.7 hPa | 0 mm | - | - | - |
| 1777740496 | 15.56° C | 2% | 1018.8 hPa | 0 mm | - | - | - |
| 1777740094 | 15.56° C | 3% | 1019 hPa | 0 mm | - | - | - |
| 1777739691 | 15° C | 4% | 1019 hPa | 0 mm | - | - | - |
| 1777739289 | 14.44° C | 7% | 1019 hPa | 0 mm | - | - | - |
| 1777738887 | 14.44° C | 8% | 1019 hPa | 0 mm | - | - | - |
| 1777738485 | 13.89° C | 8% | 1018.9 hPa | 0 mm | - | - | - |
* Rain since midnight (hover to see other rain measurements)
** Current wind speed in m/s (hover to see current wind gust speed)